| time (UTC) | temp C | wind direction | speed KPH | gust KPH | rain 1hr cm | rain 24hr cm | rain mn cm | humidity % | barometer mb |
| 20260506231537 | 17 | 232 | 0.0 | 3.2 | 0.00 | 0.53 | 0.53 | 94 | 1007.1 |
| 20260506230045 | 17 | 224 | 0.0 | 8.0 | 0.00 | 0.53 | 0.53 | 93 | 1007.1 |
| 20260506224536 | 17 | 227 | 3.2 | 8.0 | 0.00 | 0.53 | 0.53 | 92 | 1007.2 |
| 20260506223043 | 17 | 216 | 3.2 | 11.3 | 0.00 | 0.53 | 0.53 | 92 | 1007.1 |
| 20260506221548 | 17 | 220 | 0.0 | 9.7 | 0.00 | 0.53 | 0.53 | 92 | 1006.7 |
| 20260506220028 | 17 | 180 | 6.4 | 14.5 | 0.00 | 0.53 | 0.53 | 92 | 1006.9 |
| 20260506214539 | 17 | 219 | 4.8 | 12.9 | 0.00 | 0.53 | 0.53 | 92 | 1006.9 |
| 20260506213044 | 17 | 221 | 6.4 | 14.5 | 0.00 | 0.53 | 0.53 | 93 | 1006.7 |
| 20260506211540 | 17 | 204 | 4.8 | 11.3 | 0.00 | 0.53 | 0.53 | 95 | 1006.5 |
| 20260506210041 | 16 | 216 | 8.0 | 17.7 | 0.00 | 0.53 | 0.53 | 96 | 1006.6 |
| 20260506204540 | 16 | 220 | 3.2 | 9.7 | 0.00 | 0.53 | 0.53 | 97 | 1006.5 |
| 20260506203043 | 16 | 243 | 8.0 | 12.9 | 0.00 | 0.53 | 0.53 | 97 | 1006.6 |
| 20260506201545 | 16 | 245 | 4.8 | 12.9 | 0.00 | 0.53 | 0.53 | 97 | 1006.5 |
| 20260506200023 | 16 | 188 | 3.2 | 12.9 | 0.00 | 0.53 | 0.53 | 98 | 1006.5 |
| 20260506194528 | 15 | 211 | 6.4 | 17.7 | 0.00 | 0.53 | 0.53 | 98 | 1006.6 |
| 20260506193027 | 15 | 221 | 6.4 | 17.7 | 0.00 | 0.53 | 0.53 | 98 | 1006.9 |
| 20260506191530 | 15 | 230 | 3.2 | 16.1 | 0.00 | 0.53 | 0.53 | 98 | 1006.9 |
| 20260506190028 | 15 | 253 | 8.0 | 12.9 | 0.03 | 0.53 | 0.53 | 98 | 1007.2 |
| 20260506184545 | 15 | 222 | 1.6 | 16.1 | 0.03 | 0.53 | 0.53 | 98 | 1007.3 |
| 20260506183051 | 15 | 262 | 4.8 | 16.1 | 0.03 | 0.53 | 0.53 | 97 | 1007.5 |
| 20260506181610 | 15 | 214 | 11.3 | 20.9 | 0.05 | 0.53 | 0.53 | 97 | 1007.5 |
| 20260506180044 | 15 | 197 | 8.0 | 17.7 | 0.03 | 0.51 | 0.51 | 97 | 1007.6 |
| 20260506174545 | 15 | 207 | 4.8 | 16.1 | 0.03 | 0.51 | 0.51 | 97 | 1007.6 |
| 20260506173055 | 15 | 197 | 9.7 | 17.7 | 0.05 | 0.51 | 0.51 | 97 | 1007.6 |
| 20260506171527 | 15 | 213 | 6.4 | 17.7 | 0.05 | 0.48 | 0.48 | 97 | 1007.8 |
| 20260506170042 | 15 | 200 | 6.4 | 22.5 | 0.08 | 0.48 | 0.48 | 97 | 1007.8 |
| 20260506164548 | 15 | 262 | 11.3 | 19.3 | 0.13 | 0.48 | 0.48 | 96 | 1007.7 |
| 20260506163027 | 15 | 205 | 8.0 | 17.7 | 0.15 | 0.46 | 0.46 | 97 | 1007.5 |
| 20260506161536 | 15 | 147 | 9.7 | 30.6 | 0.20 | 0.43 | 0.43 | 97 | 1007.3 |
| 20260506160039 | 15 | 164 | 6.4 | 16.1 | 0.23 | 0.41 | 0.41 | 97 | 1008.4 |
| 20260506154536 | 15 | 192 | 6.4 | 20.9 | 0.20 | 0.36 | 0.36 | 96 | 1008.6 |
| 20260506153104 | 15 | 281 | 4.8 | 19.3 | 0.23 | 0.30 | 0.30 | 96 | 1008.8 |
| 20260506151527 | 15 | 201 | 4.8 | 14.5 | 0.23 | 0.23 | 0.23 | 95 | 1008.9 |
| 20260506150034 | 16 | 159 | 3.2 | 12.9 | 0.18 | 0.18 | 0.18 | 94 | 1008.7 |
| 20260506144544 | 16 | 217 | 6.4 | 17.7 | 0.15 | 0.15 | 0.15 | 93 | 1008.7 |
| 20260506143045 | 16 | 166 | 4.8 | 22.5 | 0.08 | 0.08 | 0.08 | 91 | 1008.6 |
| 20260506141536 | 17 | 255 | 8.0 | 20.9 | 0.00 | 0.00 | 0.00 | 87 | 1008.8 |
| 20260506140041 | 17 | 223 | 9.7 | 20.9 | 0.00 | 0.00 | 0.00 | 86 | 1008.6 |
| 20260506134533 | 17 | 256 | 8.0 | 16.1 | 0.00 | 0.00 | 0.00 | 86 | 1008.4 |
| 20260506133034 | 17 | 148 | 4.8 | 19.3 | 0.00 | 0.00 | 0.00 | 85 | 1008.9 |
| 20260506131551 | 17 | 189 | 4.8 | 19.3 | 0.00 | 0.00 | 0.00 | 83 | 1008.8 |
| 20260506130044 | 17 | 236 | 6.4 | 22.5 | 0.00 | 0.00 | 0.00 | 83 | 1008.9 |
| 20260506124529 | 17 | 246 | 6.4 | 20.9 | 0.00 | 0.00 | 0.00 | 82 | 1008.9 |
| 20260506123030 | 18 | 244 | 9.7 | 25.7 | 0.00 | 0.00 | 0.00 | 80 | 1008.9 |
| 20260506121539 | 18 | 197 | 8.0 | 24.1 | 0.00 | 0.00 | 0.00 | 79 | 1008.6 |
| 20260506120042 | 18 | 182 | 9.7 | 19.3 | 0.00 | 0.00 | 0.00 | 80 | 1008.6 |
| 20260506114539 | 17 | 229 | 6.4 | 19.3 | 0.00 | 0.00 | 0.00 | 80 | 1008.6 |
| 20260506113047 | 17 | 75 | 4.8 | 20.9 | 0.00 | 0.00 | 0.00 | 79 | 1008.6 |
| 20260506111532 | 18 | 228 | 6.4 | 20.9 | 0.00 | 0.00 | 0.00 | 79 | 1008.7 |
| 20260506110029 | 18 | 202 | 9.7 | 20.9 | 0.00 | 0.00 | 0.00 | 79 | 1008.4 |
| 20260506104535 | 17 | 230 | 9.7 | 22.5 | 0.00 | 0.00 | 0.00 | 79 | 1008.5 |
| 20260506103032 | 17 | 212 | 1.6 | 12.9 | 0.00 | 0.00 | 0.00 | 79 | 1008.2 |
| 20260506101539 | 17 | 257 | 6.4 | 16.1 | 0.00 | 0.00 | 0.00 | 79 | 1008.1 |
| 20260506100039 | 18 | 152 | 3.2 | 12.9 | 0.00 | 0.00 | 0.00 | 79 | 1008.2 |
| 20260506094545 | 18 | 214 | 3.2 | 16.1 | 0.00 | 0.00 | 0.00 | 79 | 1008.2 |
| 20260506093026 | 18 | 228 | 4.8 | 14.5 | 0.00 | 0.00 | 0.00 | 79 | 1008.2 |
| 20260506091548 | 18 | 122 | 6.4 | 17.7 | 0.00 | 0.00 | 0.00 | 78 | 1008.3 |
| 20260506090026 | 18 | 280 | 3.2 | 14.5 | 0.00 | 0.00 | 0.00 | 78 | 1008.4 |
| 20260506084528 | 18 | 262 | 6.4 | 17.7 | 0.00 | 0.00 | 0.00 | 77 | 1008.3 |
| 20260506083029 | 18 | 234 | 4.8 | 17.7 | 0.00 | 0.00 | 0.00 | 77 | 1008.5 |
| 20260506081537 | 18 | 143 | 6.4 | 19.3 | 0.00 | 0.00 | 0.00 | 76 | 1008.4 |
| 20260506073037 | 18 | 214 | 3.2 | 11.3 | 0.00 | 0.00 | 0.00 | 75 | 1008.6 |
| 20260506071554 | 18 | 241 | 0.0 | 12.9 | 0.00 | 0.00 | 0.00 | 74 | 1008.8 |
| 20260506061544 | 18 | 185 | 3.2 | 8.0 | 0.00 | 0.00 | 0.00 | 72 | 1009.2 |
| 20260506044531 | 18 | 253 | 1.6 | 8.0 | 0.00 | 0.00 | 0.00 | 68 | 1009.9 |
| 20260506043030 | 18 | 195 | 3.2 | 11.3 | 0.00 | 0.00 | 0.00 | 67 | 1009.8 |
| 20260506041531 | 18 | 197 | 1.6 | 8.0 | 0.00 | 0.00 | 0.00 | 67 | 1009.8 |
| 20260506034547 | 20 | 222 | 0.0 | 11.3 | 0.00 | 0.00 | 0.00 | 63 | 1009.7 |
| 20260506033042 | 20 | 176 | 1.6 | 9.7 | 0.00 | 0.00 | 0.00 | 62 | 1009.6 |
| 20260506031546 | 20 | 251 | 4.8 | 12.9 | 0.00 | 0.00 | 0.00 | 61 | 1009.6 |
| 20260506030045 | 20 | 221 | 4.8 | 12.9 | 0.00 | 0.00 | 0.00 | 60 | 1009.5 |
| 20260506024600 | 20 | 143 | 1.6 | 11.3 | 0.00 | 0.00 | 0.00 | 59 | 1009.6 |
| 20260506023043 | 21 | 258 | 3.2 | 11.3 | 0.00 | 0.00 | 0.00 | 57 | 1009.6 |
| 20260506021532 | 21 | 170 | 3.2 | 11.3 | 0.00 | 0.00 | 0.00 | 55 | 1009.6 |
| 20260506020034 | 22 | 189 | 6.4 | 16.1 | 0.00 | 0.00 | 0.00 | 53 | 1009.5 |
| 20260506014535 | 22 | 209 | 4.8 | 22.5 | 0.00 | 0.00 | 0.00 | 52 | 1009.4 |
| 20260506013041 | 22 | 175 | 1.6 | 12.9 | 0.00 | 0.00 | 0.00 | 51 | 1009.3 |
| 20260506011533 | 22 | 205 | 4.8 | 22.5 | 0.00 | 0.00 | 0.00 | 50 | 1009.1 |
| 20260506010035 | 22 | 44 | 3.2 | 19.3 | 0.00 | 0.00 | 0.00 | 48 | 1008.9 |
| 20260506004541 | 23 | 244 | 4.8 | 16.1 | 0.00 | 0.00 | 0.00 | 47 | 1008.8 |
| 20260506003028 | 23 | 205 | 6.4 | 14.5 | 0.00 | 0.00 | 0.00 | 47 | 1008.7 |
| 20260506001537 | 23 | 211 | 6.4 | 14.5 | 0.00 | 0.00 | 0.00 | 48 | 1008.4 |
| 20260506000040 | 23 | 176 | 4.8 | 12.9 | 0.00 | 0.00 | 0.00 | 47 | 1008.4 |
| 20260505234540 | 23 | 168 | 1.6 | 14.5 | 0.00 | 0.00 | 0.00 | 46 | 1008.3 |
| 20260505233028 | 24 | 205 | 4.8 | 17.7 | 0.00 | 0.00 | 0.00 | 45 | 1008.3 |